Miscellaneous Local Product
Issued by NWS Hastings, NE

Home | Current Version | Previous Version | Text Only | Print | Product List | Glossary On
Versions: 1 2 3 4 5 6 7 8 9 10 11 12 13 14 15 16 17 18 19 20 21 22 23 24 25 26 27 28 29 30 31 32 33 34 35 36 37 38 39 40 41 42 43 44 45 46 47 48 49 50
000
AXUS43 KGID 211102
MISGRI

GID CWA HOURLY WEATHER ROUNDUP
NATIONAL WEATHER SERVICE HASTINGS NE
600 AM CDT SAT APR 21 2018

NOTE: "FAIR" INDICATES FEW OR NO CLOUDS BELOW 12,000 FEET WITH NO
SIGNIFICANT WEATHER AND/OR OBSTRUCTIONS TO VISIBILITY.

...SOUTH CENTRAL NEBRASKA...

CITY           SKY/WX    TMP DP  RH WIND       PRES   REMARKS
GRAND ISLAND   CLOUDY    42  39  89 NE8       30.24F
KEARNEY        CLOUDY    40  39  97 NE7       30.24F
HASTINGS       CLOUDY    41  40  96 N3        30.23S
ORD            CLOUDY    40  39  97 N3        30.26S FOG
YORK             N/A     41  41 100 NE10      30.24S
AURORA         CLOUDY    41  40  96 N8        30.22F
LEXINGTON      CLOUDY    40  39  93 E8        30.22F
HOLDREGE       CLOUDY    40  40 100 NE7       30.21F
HEBRON         CLOUDY    44  40  87 CALM      30.23S

...NEBRASKA PANHANDLE...

CITY           SKY/WX    TMP DP  RH WIND       PRES   REMARKS
CHADRON        CLOUDY    38  35  89 CALM      30.21F
ALLIANCE       MIX PCPN  35  35 100 SE9       30.19F WCI  28
SCOTTSBLUFF    CLOUDY    35  32  88 NE6       30.20S WCI  30
SIDNEY         LGT SNOW  33  33 100 E7        30.17S FOG     WCI  27

...WESTERN AND NORTH CENTRAL NEBRASKA...

CITY           SKY/WX    TMP DP  RH WIND       PRES   REMARKS
VALENTINE      CLOUDY    41  38  89 SE5       30.27F
AINSWORTH      DRIZZLE   39  38  97 S6        30.28S WCI  35
ONEILL         CLOUDY    43  38  83 SW3       30.29F
BROKEN BOW     CLOUDY    40  37  89 E5        30.25S
IMPERIAL       LGT RAIN  38  38 100 E8        30.18S WCI  32
NORTH PLATTE   LGT RAIN  39  37  92 SE10      30.22F WCI  32
MCCOOK         LGT RAIN  40  39  97 E8        30.19F WCI  34

...EASTERN NEBRASKA...

CITY           SKY/WX    TMP DP  RH WIND       PRES   REMARKS
NORFOLK        CLOUDY    42  35  76 E5        30.27F
SO SIOUX CITY  CLOUDY    42  33  70 E7        30.31S
TEKAMAH        CLOUDY    44  35  70 N6        30.30F
ALBION         CLOUDY    43  37  81 E3        30.27S
OMAHA EPPLEY   CLOUDY    49  27  42 SE6       30.30R
OFFUTT AFB     CLOUDY    49  26  41 E8        30.28S
MILLARD        CLOUDY    51  28  41 E6        30.28S
LINCOLN        CLOUDY    49  25  39 E6        30.26F
NEBRASKA CITY  MOCLDY    47  28  48 E5        30.26F
BEATRICE       CLOUDY    50  28  42 E9        30.23F
FALLS CITY     CLOUDY    50  24  36 E10       30.23F

...NORTHERN KANSAS...

CITY           SKY/WX    TMP DP  RH WIND       PRES   REMARKS
GOODLAND       LGT RAIN  37  36  96 E12       30.13F WCI  29
HILL CITY      LGT RAIN  41  41 100 E10       30.17F
NORTON         DRIZZLE   39  37  93 NE8       30.17F WCI  34
PHILLIPSBURG   LGT RAIN  43  43 100 NE8       30.19F
SMITH CENTER   MOCLDY    41  39  93 NE9       30.20F
BELOIT         CLOUDY    43  39  87 CALM      30.19S
HAYS           CLOUDY    43  41  93 NE10      30.16R
RUSSELL        CLOUDY    44  44 100 NE14      30.11F
CONCORDIA      CLOUDY    45  38  76 E5        30.20F
SALINA         LGT RAIN  47  43  86 E8        30.18F
TOPEKA         LGT RAIN  51  34  52 W7        30.23R



USA.gov is the U.S. government's official web portal to all federal, state and local government web resources and services.